Hannibal Rgnl AP, Hannibal, M, MO

9:00 PM CDT on July 25, 2017 (GMT -0500)
Hannibal Municipal

Weather History for KHAE - February, 2014

Change the Weather History Date:

Tuesday, February 11, 2014

  Actual Average Record
Temperature  
Mean Temperature 7 °F -  
Max Temperature 21 °F 38 °F 62 °F (2017)
Min Temperature -7 °F 18 °F -7 °F (2014)
Degree Days  
Heating Degree Days 58    
Moisture  
Dew Point -7 °F    
Average Humidity 56    
Maximum Humidity 78    
Minimum Humidity 30    
Precipitation  
Precipitation 0.00 in - - ()
Sea Level Pressure  
Sea Level Pressure 30.44 in    
Wind  
Wind Speed 2 mph (ENE)    
Max Wind Speed 9 mph    
Max Gust Speed -    
Visibility 10 miles    
Events      
Averages and records for this station are not official NWS values.
T = Trace of Precipitation, MM = Missing Value Source: NWS Daily Summary

Daily Weather History Graph

Daily Weather History Graph

Search for Another Location

Airport or City:

Trip Planner

Search our weather history database for the weather conditions in past years. The results will help you decide how hot, cold, wet, or windy it might be!

Date:

Astronomy

Feb. 11, 2014 Rise Set
Actual Time 7:03 AM CST 5:37 PM CST
Civil Twilight 6:35 AM CST 6:05 PM CST
Nautical Twilight 6:03 AM CST 6:37 PM CST
Astronomical Twilight 5:32 AM CST 7:08 PM CST
Moon 2:58 PM CST (2/11) 4:40 AM CST (2/11)
Length of Visible Light 11h 30m
Length of Day
10h 34m
Waxing Gibbous, 91% of the Moon is Illuminated
Feb 11
Waxing Gibbous
Feb 14
Full
Feb 22
Last Quarter
Mar 1
New
Mar 8
First Quarter

Hourly Weather History & Observations

Time (CST) Temp. Windchill Dew Point Humidity Pressure Visibility Wind Dir Wind Speed Gust Speed Precip Events Conditions
12:15 AM 1.4 °F -8.3 °F -9.4 °F 61% 30.50 in 10.0 mi NNW 4.6 mph - N/A   Clear
12:35 AM 1.4 °F - -9.4 °F 61% 30.48 in 10.0 mi Calm Calm - N/A   Clear
12:55 AM -0.4 °F - -9.4 °F 66% 30.48 in 10.0 mi Calm Calm - N/A   Clear
1:15 AM -0.4 °F -8.3 °F -9.4 °F 66% 30.47 in 10.0 mi North 3.5 mph - N/A   Clear
1:35 AM -0.4 °F -8.3 °F -9.4 °F 66% 30.47 in 10.0 mi North 3.5 mph - N/A   Clear
1:55 AM -0.4 °F -10.4 °F -9.4 °F 66% 30.47 in 10.0 mi North 4.6 mph - N/A   Clear
2:15 AM -2.2 °F -10.4 °F -11.2 °F 66% 30.48 in 10.0 mi North 3.5 mph - N/A   Clear
2:35 AM -4.0 °F -12.4 °F -13.0 °F 65% 30.48 in 10.0 mi NNW 3.5 mph - N/A   Clear
2:55 AM -5.8 °F -16.7 °F -13.0 °F 71% 30.48 in 10.0 mi NNW 4.6 mph - N/A   Clear
3:15 AM -4.0 °F -12.4 °F -11.2 °F 71% 30.48 in 10.0 mi North 3.5 mph - N/A   Clear
3:35 AM -4.0 °F -12.4 °F -11.2 °F 71% 30.50 in 10.0 mi North 3.5 mph - N/A   Clear
3:55 AM -4.0 °F - -13.0 °F 65% 30.50 in 10.0 mi Calm Calm - N/A   Clear
4:15 AM -4.0 °F -12.4 °F -11.2 °F 71% 30.50 in 10.0 mi North 3.5 mph - N/A   Clear
4:35 AM -4.0 °F -12.4 °F -11.2 °F 71% 30.50 in 10.0 mi North 3.5 mph - N/A   Clear
4:55 AM -4.0 °F - -11.2 °F 71% 30.51 in 10.0 mi Calm Calm - N/A   Clear
5:15 AM -5.8 °F -14.5 °F -13.0 °F 71% 30.52 in 10.0 mi NNW 3.5 mph - N/A   Clear
5:35 AM -5.8 °F - -11.2 °F 77% 30.51 in 10.0 mi Calm Calm - N/A   Scattered Clouds
5:55 AM -5.8 °F - -11.2 °F 77% 30.51 in 10.0 mi Calm Calm - N/A   Mostly Cloudy
6:15 AM -5.8 °F - -13.0 °F 71% 30.50 in 10.0 mi Calm Calm - N/A   Scattered Clouds
6:35 AM -5.8 °F - -13.0 °F 71% 30.50 in 10.0 mi Calm Calm - N/A   Scattered Clouds
6:55 AM -7.6 °F - -14.8 °F 71% 30.50 in 10.0 mi Calm Calm - N/A   Clear
7:15 AM -5.8 °F - -11.2 °F 77% 30.51 in 10.0 mi Calm Calm - N/A   Clear
7:35 AM -7.6 °F - -13.0 °F 77% 30.51 in 10.0 mi Calm Calm - N/A   Clear
7:55 AM -4.0 °F - -11.2 °F 71% 30.52 in 10.0 mi Calm Calm - N/A   Clear
8:15 AM -4.0 °F - -9.4 °F 78% 30.52 in 10.0 mi Calm Calm - N/A   Clear
8:35 AM -0.4 °F - -9.4 °F 66% 30.52 in 10.0 mi Calm Calm - N/A   Clear
8:55 AM 3.2 °F - -7.6 °F 61% 30.52 in 10.0 mi Calm Calm - N/A   Clear
9:15 AM 3.2 °F - -9.4 °F 56% 30.52 in 10.0 mi Calm Calm - N/A   Clear
9:35 AM 5.0 °F - -7.6 °F 56% 30.52 in 10.0 mi Calm Calm - N/A   Clear
9:55 AM 5.0 °F -2.1 °F -7.6 °F 56% 30.53 in 10.0 mi West 3.5 mph - N/A   Clear
10:15 AM 5.0 °F -4.1 °F -7.6 °F 56% 30.53 in 10.0 mi WNW 4.6 mph - N/A   Clear
10:55 AM 8.6 °F 2.0 °F -7.6 °F 48% 30.53 in 10.0 mi WNW 3.5 mph - N/A   Clear
11:15 AM 8.6 °F - -7.6 °F 48% 30.52 in 10.0 mi Calm Calm - N/A   Clear
11:35 AM 10.4 °F - -5.8 °F 48% 30.51 in 10.0 mi Calm Calm - N/A   Clear
11:55 AM 14.0 °F - -5.8 °F 41% 30.50 in 10.0 mi Calm Calm - N/A   Clear
12:15 PM 14.0 °F 8.2 °F -5.8 °F 41% 30.48 in 10.0 mi West 3.5 mph - N/A   Clear
12:35 PM 15.8 °F 10.2 °F -5.8 °F 38% 30.47 in 10.0 mi SSW 3.5 mph - N/A   Clear
12:55 PM 17.6 °F - -5.8 °F 35% 30.46 in 10.0 mi Calm Calm - N/A   Clear
1:15 PM 21.2 °F 16.4 °F -4.0 °F 33% 30.43 in 10.0 mi SE 3.5 mph - N/A   Clear
1:35 PM 21.2 °F - -5.8 °F 30% 30.43 in 10.0 mi Calm Calm - N/A   Clear
1:55 PM 19.4 °F - -4.0 °F 36% 30.43 in 10.0 mi Calm Calm - N/A   Scattered Clouds
2:15 PM 19.4 °F 14.3 °F -2.2 °F 39% 30.42 in 10.0 mi NNW 3.5 mph - N/A   Overcast
2:35 PM 17.6 °F 12.3 °F -2.2 °F 42% 30.42 in 10.0 mi NW 3.5 mph - N/A   Overcast
2:55 PM 19.4 °F 14.3 °F -0.4 °F 42% 30.41 in 10.0 mi East 3.5 mph - N/A   Overcast
3:15 PM 19.4 °F 12.8 °F -2.2 °F 39% 30.40 in 10.0 mi ENE 4.6 mph - N/A   Overcast
3:35 PM 19.4 °F 14.3 °F -4.0 °F 36% 30.40 in 10.0 mi ENE 3.5 mph - N/A   Scattered Clouds
3:55 PM 19.4 °F 12.8 °F -4.0 °F 36% 30.39 in 10.0 mi East 4.6 mph - N/A   Mostly Cloudy
4:55 PM 17.6 °F 12.3 °F -4.0 °F 38% 30.38 in 10.0 mi East 3.5 mph - N/A   Overcast
5:15 PM 15.8 °F 10.2 °F -2.2 °F 45% 30.36 in 10.0 mi East 3.5 mph - N/A   Overcast
5:35 PM 17.6 °F - -2.2 °F 42% 30.36 in 10.0 mi Calm Calm - N/A   Overcast
5:55 PM 15.8 °F - -2.2 °F 45% 30.36 in 10.0 mi Calm Calm - N/A   Overcast
6:15 PM 14.0 °F - -2.2 °F 49% 30.36 in 10.0 mi Calm Calm - N/A   Mostly Cloudy
6:35 PM 14.0 °F - -0.4 °F 53% 30.35 in 10.0 mi Calm Calm - N/A   Scattered Clouds
6:55 PM 12.2 °F - -0.4 °F 57% 30.35 in 10.0 mi Calm Calm - N/A   Clear
7:15 PM 10.4 °F 4.0 °F -2.2 °F 57% 30.35 in 10.0 mi ESE 3.5 mph - N/A   Clear
7:35 PM 10.4 °F 4.0 °F -2.2 °F 57% 30.35 in 10.0 mi ESE 3.5 mph - N/A   Clear
7:55 PM 12.2 °F 6.1 °F -0.4 °F 57% 30.35 in 10.0 mi ESE 3.5 mph - N/A   Clear
8:15 PM 12.2 °F 6.1 °F -0.4 °F 57% 30.35 in 10.0 mi ESE 3.5 mph - N/A   Clear
8:35 PM 12.2 °F 6.1 °F -0.4 °F 57% 30.36 in 10.0 mi East 3.5 mph - N/A   Clear
8:55 PM 12.2 °F 6.1 °F -2.2 °F 53% 30.36 in 10.0 mi SE 3.5 mph - N/A   Clear
9:15 PM 10.4 °F 2.2 °F -4.0 °F 52% 30.35 in 10.0 mi SE 4.6 mph - N/A   Clear
9:35 PM 10.4 °F 2.2 °F -4.0 °F 52% 30.35 in 10.0 mi SE 4.6 mph - N/A   Clear
9:55 PM 10.4 °F 0.8 °F -4.0 °F 52% 30.33 in 10.0 mi SE 5.8 mph - N/A   Clear
10:15 PM 12.2 °F 2.9 °F -4.0 °F 48% 30.33 in 10.0 mi SE 5.8 mph - N/A   Clear
10:35 PM 10.4 °F -0.4 °F -4.0 °F 52% 30.32 in 10.0 mi SE 6.9 mph - N/A   Clear
10:55 PM 12.2 °F -0.2 °F -4.0 °F 48% 30.31 in 10.0 mi SE 9.2 mph - N/A   Clear
11:15 PM 12.2 °F 1.7 °F -4.0 °F 48% 30.30 in 10.0 mi SE 6.9 mph - N/A   Clear
11:35 PM 10.4 °F 2.2 °F -4.0 °F 52% 30.30 in 10.0 mi SE 4.6 mph - N/A   Clear
11:55 PM 12.2 °F 0.7 °F -2.2 °F 53% 30.30 in 10.0 mi SSE 8.1 mph - N/A   Clear